KB7STN Weather Reports


time (UTC)temp
C
wind
direction
speed
KPH
gust
KPH
rain 1hr
cm
rain 24hr
cm
rain mn
cm
humidity
%
barometer
mb
20260504100220 15 223 4.8 12.9 0.00 0.00 0.00 39 999.0
20260504081720 16 267 3.2 9.7 0.00 0.00 0.00 26 998.6
20260504081220 16 265 3.2 11.3 0.00 0.00 0.00 26 998.6
20260504080720 16 266 1.6 11.3 0.00 0.00 0.00 27 998.9
20260504080220 16 220 3.2 8.0 0.00 0.00 0.00 27 998.9
20260504070220 15 5 0.0 0.0 0.00 0.00 0.00 28 998.7
20260504060220 15 5 0.0 1.6 0.00 0.00 0.00 28 999.1
20260504050720 15 5 0.0 0.0 0.00 0.00 0.00 27 999.5
20260504050220 15 5 0.0 0.0 0.00 0.00 0.00 27 999.5
20260504045720 15 5 0.0 0.0 0.00 0.00 0.00 27 999.5
20260504045220 15 5 0.0 0.0 0.00 0.00 0.00 28 999.6
20260504044720 15 5 0.0 0.0 0.00 0.00 0.00 28 999.6
20260504044220 15 5 0.0 0.0 0.00 0.00 0.00 28 999.7
20260504043720 16 5 0.0 0.0 0.00 0.00 0.00 27 999.6
20260504043220 16 5 0.0 0.0 0.00 0.00 0.00 27 999.7
20260504042720 16 5 0.0 0.0 0.00 0.00 0.00 28 999.7
20260504042220 16 5 0.0 0.0 0.00 0.00 0.00 27 999.8
20260504041720 16 5 0.0 0.0 0.00 0.00 0.00 27 999.8
20260504041220 16 5 0.0 0.0 0.00 0.00 0.00 27 999.7
20260504040721 16 5 0.0 0.0 0.00 0.00 0.00 28 999.7
20260504040221 16 5 0.0 0.0 0.00 0.00 0.00 26 999.7
20260504035721 16 5 0.0 0.0 0.00 0.00 0.00 27 999.8
20260504035221 16 5 0.0 0.0 0.00 0.00 0.00 26 999.8
20260504034721 16 5 0.0 0.0 0.00 0.00 0.00 26 999.7
20260504034221 16 5 0.0 0.0 0.00 0.00 0.00 26 999.7
20260504033721 16 5 0.0 0.0 0.00 0.00 0.00 26 999.7
20260504033221 17 5 0.0 0.0 0.00 0.00 0.00 26 999.7
20260504032721 17 5 0.0 0.0 0.00 0.00 0.00 26 999.7
20260504032221 17 5 0.0 0.0 0.00 0.00 0.00 25 999.6
20260504031721 17 5 0.0 0.0 0.00 0.00 0.00 24 999.6
20260504031221 17 5 0.0 0.0 0.00 0.00 0.00 24 999.7
20260504030721 17 5 0.0 0.0 0.00 0.00 0.00 24 999.7
20260504030221 17 5 0.0 0.0 0.00 0.00 0.00 24 999.8
20260504025721 17 5 0.0 0.0 0.00 0.00 0.00 25 999.7
20260504025221 18 5 0.0 1.6 0.00 0.00 0.00 24 999.7
20260504024721 18 5 0.0 3.2 0.00 0.00 0.00 22 999.7
20260504024221 18 5 0.0 3.2 0.00 0.00 0.00 23 999.7
20260504023721 18 5 0.0 0.0 0.00 0.00 0.00 23 999.7
20260504023221 18 5 0.0 0.0 0.00 0.00 0.00 23 999.6
20260504022721 18 5 0.0 0.0 0.00 0.00 0.00 24 999.5
20260504022221 18 5 0.0 0.0 0.00 0.00 0.00 23 999.5
20260504021721 18 5 0.0 0.0 0.00 0.00 0.00 23 999.6
20260504021221 18 5 0.0 0.0 0.00 0.00 0.00 23 999.6
20260504020721 19 5 0.0 0.0 0.00 0.00 0.00 23 999.6
20260504020221 19 5 0.0 0.0 0.00 0.00 0.00 23 999.5
20260504015721 19 5 0.0 0.0 0.00 0.00 0.00 23 999.5
20260504015221 19 5 0.0 0.0 0.00 0.00 0.00 23 999.6
20260504014721 20 5 0.0 0.0 0.00 0.00 0.00 21 999.7
20260504014221 20 5 0.0 0.0 0.00 0.00 0.00 20 999.6
20260504013721 20 5 0.0 0.0 0.00 0.00 0.00 20 999.7
20260504013221 20 5 0.0 0.0 0.00 0.00 0.00 21 999.7
20260504012721 20 5 0.0 0.0 0.00 0.00 0.00 21 999.7
20260504012221 20 5 0.0 0.0 0.00 0.00 0.00 20 999.7
20260504011721 20 5 0.0 0.0 0.00 0.00 0.00 20 999.7
20260504011221 21 5 0.0 0.0 0.00 0.00 0.00 20 999.7
20260504010721 21 5 0.0 0.0 0.00 0.00 0.00 20 999.7
20260504010221 21 5 0.0 1.6 0.00 0.00 0.00 18 999.9
20260504005721 21 5 0.0 0.0 0.00 0.00 0.00 19 999.9
20260504005221 21 5 0.0 3.2 0.00 0.00 0.00 19 1000.1
20260504004721 21 5 0.0 4.8 0.00 0.00 0.00 18 1000.1
20260504004221 21 5 0.0 6.4 0.00 0.00 0.00 20 1000.2
20260504003721 21 5 0.0 6.4 0.00 0.00 0.00 19 1000.2
20260504003221 21 5 0.0 1.6 0.00 0.00 0.00 20 1000.2
20260504002721 21 5 0.0 3.2 0.00 0.00 0.00 18 1000.3
20260504002221 21 5 1.6 3.2 0.00 0.00 0.00 18 1000.3
20260504001721 21 5 1.6 8.0 0.00 0.00 0.00 18 1000.4
20260504001221 22 5 1.6 8.0 0.00 0.00 0.00 19 1000.3
20260504000721 22 5 1.6 4.8 0.00 0.00 0.00 18 1000.3
20260504000221 22 5 1.6 3.2 0.00 0.00 0.00 18 1000.3
20260503235721 22 5 1.6 4.8 0.00 0.00 0.00 17 1000.3
20260503235221 22 5 0.0 3.2 0.00 0.00 0.00 18 1000.3
20260503234721 22 5 0.0 1.6 0.00 0.00 0.00 19 1000.3
20260503234221 22 5 1.6 4.8 0.00 0.00 0.00 17 1000.3
20260503233721 22 5 1.6 3.2 0.00 0.00 0.00 17 1000.3
20260503233221 22 5 1.6 9.7 0.00 0.00 0.00 16 1000.4
20260503232721 22 36 1.6 9.7 0.00 0.00 0.00 19 1000.2
20260503232221 22 170 0.0 0.0 0.00 0.00 0.00 18 1000.3
20260503231721 22 170 0.0 1.6 0.00 0.00 0.00 18 1000.4
20260503231221 22 170 0.0 6.4 0.00 0.00 0.00 18 1000.4
20260503230721 22 169 0.0 0.0 0.00 0.00 0.00 16 1000.5
20260503230221 22 155 0.0 1.6 0.00 0.00 0.00 16 1000.5
20260503225721 22 155 1.6 6.4 0.00 0.00 0.00 16 1000.5
20260503225230 22 155 1.6 8.0 0.00 0.00 0.00 17 1000.6
20260503224721 22 155 1.6 4.8 0.00 0.00 0.00 17 1000.6
20260503224221 22 154 3.2 11.3 0.00 0.00 0.00 17 1000.7
20260503223721 22 157 3.2 11.3 0.00 0.00 0.00 16 1000.8
20260503223221 22 186 1.6 6.4 0.00 0.00 0.00 17 1000.8
20260503222721 22 181 3.2 6.4 0.00 0.00 0.00 17 1000.9
20260503222221 22 178 4.8 8.0 0.00 0.00 0.00 16 1000.9
20260503221721 22 184 4.8 9.7 0.00 0.00 0.00 16 1001.0
20260503221221 22 205 6.4 8.0 0.00 0.00 0.00 16 1001.1
20260503220721 22 222 6.4 11.3 0.00 0.00 0.00 16 1001.2
20260503220221 22 217 6.4 11.3 0.00 0.00 0.00 16 1001.2
20260503215721 23 195 6.4 19.3 0.00 0.00 0.00 15 1001.2
20260503215221 23 169 4.8 12.9 0.00 0.00 0.00 15 1001.3
20260503214721 23 171 6.4 12.9 0.00 0.00 0.00 15 1001.4
20260503214221 23 163 6.4 17.7 0.00 0.00 0.00 15 1001.5
20260503213721 23 155 6.4 11.3 0.00 0.00 0.00 16 1001.6
20260503213221 23 190 6.4 11.3 0.00 0.00 0.00 16 1001.7
20260503212721 23 222 4.8 12.9 0.00 0.00 0.00 16 1001.8
20260503212221 23 163 4.8 11.3 0.00 0.00 0.00 17 1002.0
20260503211721 23 209 6.4 12.9 0.00 0.00 0.00 17 1002.1
20260503211221 23 204 4.8 11.3 0.00 0.00 0.00 17 1002.2
20260503210721 23 172 6.4 11.3 0.00 0.00 0.00 16 1002.4
20260503210221 23 176 6.4 11.3 0.00 0.00 0.00 17 1002.4
20260503205721 23 215 8.0 14.5 0.00 0.00 0.00 16 1002.5
20260503205221 23 188 8.0 16.1 0.00 0.00 0.00 16 1002.6
20260503204721 23 151 6.4 17.7 0.00 0.00 0.00 15 1002.6
20260503204221 23 163 4.8 9.7 0.00 0.00 0.00 17 1002.8
20260503203721 23 184 4.8 12.9 0.00 0.00 0.00 17 1002.8
20260503203221 23 217 4.8 8.0 0.00 0.00 0.00 18 1002.9
20260503202721 23 159 4.8 11.3 0.00 0.00 0.00 17 1003.0
20260503202221 23 214 3.2 12.9 0.00 0.00 0.00 17 1003.2
20260503201721 23 190 4.8 9.7 0.00 0.00 0.00 18 1003.3
20260503201221 23 205 4.8 9.7 0.00 0.00 0.00 17 1003.3
20260503200721 23 209 4.8 12.9 0.00 0.00 0.00 15 1003.5
20260503200221 23 202 4.8 8.0 0.00 0.00 0.00 15 1003.5
20260503195721 23 196 4.8 9.7 0.00 0.00 0.00 18 1003.6
20260503195221 23 164 4.8 11.3 0.00 0.00 0.00 18 1003.7
20260503194721 23 168 4.8 11.3 0.00 0.00 0.00 18 1003.8
20260503194221 23 196 3.2 11.3 0.00 0.00 0.00 19 1003.8
20260503193721 23 157 3.2 12.9 0.00 0.00 0.00 18 1003.9
20260503193221 23 215 3.2 11.3 0.00 0.00 0.00 19 1004.0
20260503192723 23 182 3.2 9.7 0.00 0.00 0.00 16 1004.0
20260503192221 23 175 1.6 11.3 0.00 0.00 0.00 19 1004.1
20260503191721 23 242 1.6 11.3 0.00 0.00 0.00 19 1004.1
20260503191221 22 242 1.6 9.7 0.00 0.00 0.00 21 1004.1
20260503190721 22 242 1.6 4.8 0.00 0.00 0.00 18 1004.4
20260503190221 22 242 1.6 9.7 0.00 0.00 0.00 21 1004.4
20260503185721 22 242 1.6 9.7 0.00 0.00 0.00 23 1004.5
20260503185221 21 242 1.6 4.8 0.00 0.00 0.00 23 1004.7
20260503184721 21 242 1.6 8.0 0.00 0.00 0.00 20 1004.7
20260503184221 22 242 1.6 4.8 0.00 0.00 0.00 23 1004.8
20260503183721 21 242 1.6 6.4 0.00 0.00 0.00 24 1004.8
20260503183221 21 242 1.6 9.7 0.00 0.00 0.00 21 1004.9
20260503182721 21 242 1.6 9.7 0.00 0.00 0.00 23 1004.9
20260503182221 21 242 1.6 6.4 0.00 0.00 0.00 23 1005.0
20260503181721 21 242 3.2 8.0 0.00 0.00 0.00 23 1005.1
20260503181221 21 242 3.2 12.9 0.00 0.00 0.00 23 1005.2
20260503180721 20 247 3.2 8.0 0.00 0.00 0.00 24 1005.2
20260503180221 20 246 3.2 8.0 0.00 0.00 0.00 24 1005.2
20260503175722 20 248 3.2 11.3 0.00 0.00 0.00 25 1005.3
20260503175221 20 248 3.2 8.0 0.00 0.00 0.00 23 1005.3
20260503174721 20 248 3.2 8.0 0.00 0.00 0.00 21 1005.4
20260503174222 20 253 3.2 9.7 0.00 0.00 0.00 23 1005.4
20260503173722 20 192 3.2 11.3 0.00 0.00 0.00 22 1005.4
20260503173221 20 240 3.2 9.7 0.00 0.00 0.00 21 1005.5
20260503172721 20 241 1.6 6.4 0.00 0.00 0.00 22 1005.6
20260503172221 20 242 3.2 8.0 0.00 0.00 0.00 23 1005.7
20260503171722 20 251 1.6 8.0 0.00 0.00 0.00 22 1005.8
20260503171222 20 260 1.6 9.7 0.00 0.00 0.00 21 1005.7
20260503170721 20 249 1.6 11.3 0.00 0.00 0.00 23 1005.9
20260503170222 20 210 1.6 9.7 0.00 0.00 0.00 24 1006.0
20260503150722 16 32 0.0 0.0 0.00 0.00 0.00 37 1006.5
20260503150222 16 32 0.0 0.0 0.00 0.00 0.00 36 1006.5
20260503140222 13 32 0.0 0.0 0.00 0.00 0.00 36 1006.6
20260503131222 10 32 0.0 0.0 0.00 0.00 0.00 38 1006.4
20260503130722 10 32 0.0 0.0 0.00 0.00 0.00 40 1006.3
20260503130222 10 32 0.0 0.0 0.00 0.00 0.00 39 1006.4
20260503120222 10 32 0.0 0.0 0.00 0.00 0.00 39 1006.5
20260503110722 10 32 0.0 0.0 0.00 0.00 0.00 39 1007.1
20260503110222 10 32 0.0 0.0 0.00 0.00 0.00 38 1007.1